Location: Unspecified
(0.0000°N, 0.0000°E)
Time: 07:05:48
(UTC+00:00)

Courier 1B Rocket - Pass Details

Date: 15 December 2018
Orbit: 920 x 1202 km, 28.2° (Epoch: 15 June)

Event Time Altitude Azimuth Distance (km) Brightness Sun altitude
Rises 02:23:56 0° 211° (SSW) 3,654 - -47.0°
Reaches altitude 10° 02:28:25 10° 183° (S) 2,657 - -46.1°
Exits shadow 02:30:54 13° 160° (SSE) 2,441 7.5 -45.6°
Maximum altitude 02:31:05 13° 158° (SSE) 2,439 7.5 -45.5°
Drops below altitude 10° 02:33:44 10° 133° (SE) 2,617 7.8 -45.0°
Sets 02:38:03 0° 105° (ESE) 3,547 8.7 -44.1°
